STARLINK-31701, 59582

Orbit data source: Space-Track

STARLINK-31701, 59582 is a payload satellite owned by SpaceX/Seattle (US) in LEO that was launched on Tue, 23 Apr 2024 UTC via an FALCON 9 launch vehicle from the Air Force Eastern Test Range (AFETR). Payload-class satellites include a variety of spacecraft equipped with specific instruments for various scientific and technological missions. These include communications satellites like Starlink; space stations such as the ISS; scientific satellites like the Hubble; Earth observation satellites from companies like Planet Labs, Umbra, and HawkEye 360; GPS; miniature CubeSats for education and research; and military/defense satellites.

Loading next visibility...
Identifier
59582, 2024-076U
Orbit
LEO
Country
Flag of USUS
Related business
Manufacturer
SpaceX/Seattle
Mission
Operational Commercial Communications
Bus & Motor
STARLINK V2M, Unknown motor
Mass
730 kg wet, ~700 kg dry
Launch date (UTC)
2024-04-23 (1 year ago)
Launch vehicle
FALCON 9
Launch site
Air Force Eastern Test Range (AFETR)
Object type
Payload
Rocket body
Debris
Shape & HBR
Box + 2 Pan, 17.7 m
Radar Cross Section
33.884 m², Large (>1 m²)

Expand to show TLE details & history
Last TLE update: 13 hours ago

TLE from 13 hours ago
0 STARLINK-31701
1 59582U 24076U   25288.93270019  .00049966  00000-0  18060-2 0  9995
2 59582  43.0013 106.5363 0001325 271.6859  88.3841 15.27706189 84274
Epoch: 2025-10-15T22:23Z
TLE epoch observation values (Epoch: 2025-10-15T22:23:05.296Z)
Latitude
-0.00001°
Longitude
106.06454°
Altitude
482.421 km
Speed
7.626 km/s
True Right ascension
07h 06m 08s
True Declination
0° 00' 00"
Sunlit
Object was in daylight at epoch
Visualization orbit readout
Latitude
Unknown
Longitude
Unknown
Altitude
Unknown
Speed
Unknown
Apparent Right ascension
Unknown
Apparent Declination
Unknown
Sunlit
N/A
Visualization observer readout
Local Sidereal Time
06:01:57
Azimuth
Unknown
Elevation
Unknown
Doppler factor
Unknown
Orbital elements
Apogee altitude
485.526 km
Perigee altitude
483.707 km
Semi-major axis
6,862.753 km
Eccentricity
0.00013
Inclination
43.0013°
RAAN
106.5363°
Arg. of periapsis
271.6859°
True anomaly
88.39928°
Mean anomaly
88.3841°
Eccentric anomaly
88.39169°
Mean motion
3.81765 °/min
Orbital period
94.3 mins
BSTAR
0.001806
Loading maneuver chart data...
Computing Atmospheric mass density...
Loading historical data...
Loading historical data...
Loading historical data...
Loading historical data...
Loading historical data...
Loading historical data...
Loading historical data...

Documentation

Showing up to 5 results
|